Weather History for KWJF - July, 2013

Change the Weather History Date:

Saturday, July 20, 2013

  Actual Average Record
Temperature  
Mean Temperature 86 °F 83 °F  
Max Temperature 102 °F 99 °F 110 °F (1960)
Min Temperature 69 °F 67 °F 52 °F (1962)
Degree Days  
Heating Degree Days 0    
Month to date heating degree days 0  
Since 1 June heating degree days 0  
Since 1 July heating degree days 0  
Cooling Degree Days 21    
Month to date cooling degree days 420  
Year to date cooling degree days 1145  
Since 1 June cooling degree days 887  
Growing Degree Days 36 (Base 50)    
Moisture  
Dew Point 46 °F    
Average Humidity 29    
Maximum Humidity 46    
Minimum Humidity 11    
Precipitation  
Precipitation 0.00 in 0.00 in 0.02 in (2006)
Month to date precipitation T 0.06  
Year to date precipitation 1.10 4.97  
Since 1 July precipitation T 0.06  
Snow  
Snow 0.00 in - 0.00 in ()
Month to date snowfall 0.0  
Since 1 June snowfall 0.0  
Since 1 July snowfall 0.0  
Snow Depth 0.00 in    
Sea Level Pressure  
Sea Level Pressure 29.77 in    
Wind  
Wind Speed 12 mph (WSW)    
Max Wind Speed 29 mph    
Max Gust Speed 36 mph    
Visibility 10 miles    
Events      
T = Trace of Precipitation, MM = Missing Value Source: NWS Daily Summary

Daily Weather History Graph

Daily Weather History Graph

Search for Another Location

Airport or City:

Trip Planner

Search our weather history database for the weather conditions in past years. The results will help you decide how hot, cold, wet, or windy it might be!

Date:

Astronomy

Jul. 20, 2013 Rise Set
Actual Time 5:54 AM PDT 8:03 PM PDT
Civil Twilight 5:25 AM PDT 8:32 PM PDT
Nautical Twilight 4:51 AM PDT 9:06 PM PDT
Astronomical Twilight 4:13 AM PDT 9:44 PM PDT
Moon 6:12 PM PDT (7/20) 3:39 AM PDT (7/20)
Length of Visible Light 15h 06m
Length of Day
14h 09m
Waxing Gibbous, 94% of the Moon is Illuminated
Jul 20
Waxing Gibbous
Jul 22
Full
Jul 29
Last Quarter
Aug 6
New
Aug 14
First Quarter

Hourly Weather History & Observations

Time (PDT) Temp. Heat Index Dew Point Humidity Pressure Visibility Wind Dir Wind Speed Gust Speed Precip Events Conditions
12:56 AM 80.1 °F - 37.9 °F 22% 29.78 in 10.0 mi WSW 8.1 mph - N/A   Clear
1:56 AM 79.0 °F - 37.9 °F 23% 29.78 in 10.0 mi Variable 3.5 mph - N/A   Clear
2:56 AM 73.9 °F - 39.0 °F 28% 29.79 in 10.0 mi Calm Calm - N/A   Clear
3:56 AM 73.0 °F - 39.9 °F 30% 29.80 in 10.0 mi Calm Calm - N/A   Clear
4:56 AM 72.0 °F - 37.9 °F 29% 29.78 in 10.0 mi WNW 10.4 mph - N/A   Clear
5:56 AM 75.0 °F - 39.0 °F 27% 29.77 in 10.0 mi WNW 13.8 mph - N/A   Clear
6:56 AM 79.0 °F - 39.0 °F 24% 29.79 in 10.0 mi East 3.5 mph - N/A   Clear
7:56 AM 82.0 °F - 39.9 °F 22% 29.81 in 10.0 mi Calm Calm - N/A   Clear
8:56 AM 87.1 °F - 39.0 °F 18% 29.82 in 10.0 mi Calm Calm - N/A   Clear
9:56 AM 91.9 °F - 37.0 °F 15% 29.81 in 10.0 mi Variable 4.6 mph - N/A   Clear
10:56 AM 97.0 °F - 37.0 °F 12% 29.80 in 10.0 mi West 13.8 mph 21.9 mph N/A   Clear
11:56 AM 100.0 °F - 37.9 °F 12% 29.79 in 10.0 mi WSW 17.3 mph 25.3 mph N/A   Clear
12:56 PM 100.9 °F - 39.0 °F 12% 29.77 in 10.0 mi WSW 12.7 mph 23.0 mph N/A   Clear
1:56 PM 100.9 °F - 42.1 °F 13% 29.76 in 10.0 mi WSW 12.7 mph 20.7 mph N/A   Clear
2:56 PM 98.1 °F 95.7 °F 53.1 °F 22% 29.76 in 10.0 mi SW 20.7 mph 28.8 mph N/A   Clear
3:56 PM 96.1 °F 94.8 °F 57.0 °F 27% 29.75 in 10.0 mi SW 23.0 mph 33.4 mph N/A   Clear
4:56 PM 95.0 °F 93.7 °F 57.0 °F 28% 29.74 in 10.0 mi WSW 26.5 mph 31.1 mph N/A   Clear
5:56 PM 91.0 °F 90.0 °F 57.9 °F 33% 29.74 in 10.0 mi SW 17.3 mph 26.5 mph N/A   Clear
6:56 PM 90.0 °F 88.8 °F 57.9 °F 34% 29.73 in 10.0 mi WSW 24.2 mph 28.8 mph N/A   Partly Cloudy
7:56 PM 88.0 °F 86.7 °F 57.0 °F 35% 29.74 in 10.0 mi SW 16.1 mph - N/A   Clear
8:56 PM 86.0 °F 84.7 °F 55.9 °F 36% 29.75 in 10.0 mi SW 13.8 mph - N/A   Clear
9:56 PM 82.9 °F 82.8 °F 59.0 °F 44% 29.76 in 10.0 mi WSW 16.1 mph - N/A   Clear
10:56 PM 82.9 °F 82.1 °F 55.9 °F 39% 29.76 in 10.0 mi WSW 17.3 mph - N/A   Clear
11:56 PM 82.0 °F 81.6 °F 55.9 °F 41% 29.76 in 10.0 mi SW 9.2 mph 19.6 mph N/A   Clear